EZY18QU EGAC-EGNT

Flight info

Callsign EZY18QU
Flight time 0h 37m
Altitude 23000
Route DCT MAGEE DCT BLACA P600 TRN DCT TLA Y96 NATEB DCT
Aircraft A320/M-SDE3FGHIRWY/LB1

Departure

Time 2026-05-08 13:03
Airport George Best Belfast City Airport (EGAC)

Arrival

Time 2026-05-08 13:40
Airport Newcastle International Airport (EGNT)
Time Latitude Longitude Altitude Speed Heading
2026-05-08 12:41 54.61515 -5.87155 22 ft 0 kts 154°
2026-05-08 12:57 54.61515 -5.87156 22 ft 1 kts 154°
2026-05-08 12:57 54.61532 -5.87169 22 ft 2 kts 154°
2026-05-08 12:57 54.61555 -5.87186 22 ft 4 kts 180°
2026-05-08 12:57 54.61574 -5.87174 22 ft 4 kts 218°
2026-05-08 12:58 54.61581 -5.87165 22 ft 1 kts 217°
2026-05-08 13:00 54.61574 -5.87173 24 ft 7 kts 217°
2026-05-08 13:00 54.61489 -5.87276 22 ft 16 kts 214°
2026-05-08 13:00 54.61407 -5.87397 23 ft 15 kts 236°
2026-05-08 13:01 54.61333 -5.87506 23 ft 13 kts 214°
2026-05-08 13:01 54.61259 -5.87595 22 ft 13 kts 218°
2026-05-08 13:01 54.61267 -5.87686 22 ft 7 kts 293°
2026-05-08 13:01 54.61295 -5.87753 23 ft 7 kts 307°
2026-05-08 13:02 54.61333 -5.87802 20 ft 5 kts 357°
2026-05-08 13:02 54.61367 -5.87779 22 ft 5 kts 34°
2026-05-08 13:02 54.61384 -5.87760 20 ft 0 kts 34°
2026-05-08 13:02 54.61584 -5.87522 21 ft 83 kts 34°
2026-05-08 13:03 54.62306 -5.86655 44 ft 164 kts 35°
2026-05-08 13:03 54.63311 -5.85462 650 ft 178 kts 34°
2026-05-08 13:03 54.64352 -5.84271 1401 ft 181 kts 33°
2026-05-08 13:03 54.65367 -5.82978 2136 ft 183 kts 40°
2026-05-08 13:04 54.66376 -5.81507 2777 ft 196 kts 40°
2026-05-08 13:04 54.67439 -5.79875 3359 ft 215 kts 42°
2026-05-08 13:04 54.68577 -5.77984 3840 ft 238 kts 43°
2026-05-08 13:04 54.69823 -5.75904 4392 ft 259 kts 43°
2026-05-08 13:05 54.71149 -5.73705 5222 ft 268 kts 43°
2026-05-08 13:05 54.72520 -5.71458 6146 ft 274 kts 43°
2026-05-08 13:05 54.73925 -5.69180 7048 ft 280 kts 43°
2026-05-08 13:05 54.75370 -5.66860 7945 ft 286 kts 43°
2026-05-08 13:06 54.76849 -5.64497 8816 ft 292 kts 43°
2026-05-08 13:06 54.78323 -5.62035 9677 ft 298 kts 50°
2026-05-08 13:06 54.79488 -5.59036 10392 ft 308 kts 65°
2026-05-08 13:06 54.80295 -5.55455 10725 ft 331 kts 72°
2026-05-08 13:07 54.81080 -5.51590 11256 ft 345 kts 72°
2026-05-08 13:07 54.81884 -5.47628 12023 ft 351 kts 72°
2026-05-08 13:07 54.82701 -5.43607 12806 ft 356 kts 72°
2026-05-08 13:07 54.83529 -5.39533 13552 ft 361 kts 72°
2026-05-08 13:08 54.84371 -5.35407 14281 ft 365 kts 72°
2026-05-08 13:08 54.85220 -5.31231 14979 ft 370 kts 72°
2026-05-08 13:08 54.86082 -5.26992 15661 ft 374 kts 72°
2026-05-08 13:08 54.87006 -5.22746 16332 ft 380 kts 66°
2026-05-08 13:09 54.88352 -5.18758 16982 ft 386 kts 54°
2026-05-08 13:09 54.90154 -5.15287 17613 ft 391 kts 41°
2026-05-08 13:09 54.92357 -5.12481 18240 ft 394 kts 29°
2026-05-08 13:09 54.94814 -5.10312 18856 ft 398 kts 25°
2026-05-08 13:10 54.97309 -5.08171 19430 ft 402 kts 25°
2026-05-08 13:10 54.99826 -5.05990 19999 ft 407 kts 25°
2026-05-08 13:10 55.02377 -5.03773 20554 ft 411 kts 25°
2026-05-08 13:10 55.04948 -5.01537 21103 ft 415 kts 25°
2026-05-08 13:11 55.07541 -4.99276 21616 ft 419 kts 25°
2026-05-08 13:11 55.10167 -4.96984 22111 ft 424 kts 25°
2026-05-08 13:11 55.12812 -4.94672 22618 ft 427 kts 25°
2026-05-08 13:11 55.15485 -4.92333 23000 ft 431 kts 25°
2026-05-08 13:12 55.18171 -4.89982 23093 ft 430 kts 25°
2026-05-08 13:12 55.20844 -4.87637 23109 ft 428 kts 25°
2026-05-08 13:12 55.23501 -4.85303 23109 ft 427 kts 25°
2026-05-08 13:12 55.26127 -4.82849 23109 ft 428 kts 31°
2026-05-08 13:13 55.28484 -4.79657 23108 ft 430 kts 43°
2026-05-08 13:13 55.30455 -4.75718 23107 ft 430 kts 55°
2026-05-08 13:13 55.31964 -4.71205 23109 ft 428 kts 67°
2026-05-08 13:13 55.32970 -4.66302 23108 ft 425 kts 78°
2026-05-08 13:14 55.33658 -4.61250 23109 ft 425 kts 79°
2026-05-08 13:14 55.34338 -4.56195 23107 ft 425 kts 79°
2026-05-08 13:14 55.35016 -4.51133 23108 ft 425 kts 79°
2026-05-08 13:14 55.35692 -4.46079 23109 ft 425 kts 79°
2026-05-08 13:15 55.36366 -4.41020 23110 ft 425 kts 79°
2026-05-08 13:15 55.37037 -4.35960 23111 ft 425 kts 79°
2026-05-08 13:15 55.37707 -4.30893 23110 ft 425 kts 79°
2026-05-08 13:15 55.38375 -4.25830 23113 ft 425 kts 79°
2026-05-08 13:16 55.39028 -4.20865 23112 ft 425 kts 79°
2026-05-08 13:16 55.39691 -4.15793 23113 ft 425 kts 79°
2026-05-08 13:16 55.40351 -4.10723 23114 ft 425 kts 80°
2026-05-08 13:16 55.41008 -4.05654 23115 ft 425 kts 80°
2026-05-08 13:17 55.41330 -4.00529 23113 ft 419 kts 95°
2026-05-08 13:17 55.41186 -3.95423 23112 ft 418 kts 97°
2026-05-08 13:17 55.41020 -3.90320 23110 ft 417 kts 97°
2026-05-08 13:17 55.40843 -3.85229 23106 ft 417 kts 97°
2026-05-08 13:18 55.40660 -3.80133 23107 ft 417 kts 97°
2026-05-08 13:18 55.40476 -3.75044 23106 ft 417 kts 97°
2026-05-08 13:18 55.40291 -3.69953 23105 ft 417 kts 97°
2026-05-08 13:18 55.40106 -3.64872 23103 ft 417 kts 97°
2026-05-08 13:19 55.39921 -3.59783 23102 ft 417 kts 97°
2026-05-08 13:19 55.39734 -3.54698 23102 ft 416 kts 97°
2026-05-08 13:19 55.39546 -3.49618 23102 ft 416 kts 97°
2026-05-08 13:19 55.39356 -3.44530 23104 ft 416 kts 97°
2026-05-08 13:20 55.39165 -3.39452 23103 ft 416 kts 97°
2026-05-08 13:20 55.38970 -3.34366 23105 ft 416 kts 97°
2026-05-08 13:20 55.38772 -3.29289 23102 ft 416 kts 97°
2026-05-08 13:20 55.38571 -3.24225 23098 ft 415 kts 97°
2026-05-08 13:21 55.38367 -3.19153 23095 ft 415 kts 97°
2026-05-08 13:21 55.38163 -3.14092 23092 ft 415 kts 97°
2026-05-08 13:21 55.37959 -3.09033 23091 ft 415 kts 97°
2026-05-08 13:21 55.37755 -3.03969 23089 ft 415 kts 97°
2026-05-08 13:22 55.37549 -2.98913 23089 ft 415 kts 97°
2026-05-08 13:22 55.37340 -2.93865 23086 ft 414 kts 97°
2026-05-08 13:22 55.37124 -2.88817 23084 ft 414 kts 97°
2026-05-08 13:22 55.36906 -2.83792 22928 ft 407 kts 98°
2026-05-08 13:23 55.36692 -2.78870 22677 ft 401 kts 98°
2026-05-08 13:23 55.36472 -2.74010 22427 ft 397 kts 99°
2026-05-08 13:23 55.35954 -2.69295 22176 ft 390 kts 110°
2026-05-08 13:23 55.34989 -2.64889 21924 ft 383 kts 121°
2026-05-08 13:24 55.33706 -2.60815 21673 ft 380 kts 124°
2026-05-08 13:24 55.32406 -2.56796 21421 ft 378 kts 124°
2026-05-08 13:24 55.31109 -2.52785 21175 ft 377 kts 124°
2026-05-08 13:24 55.29820 -2.48805 20865 ft 372 kts 124°
2026-05-08 13:25 55.28549 -2.44880 20404 ft 369 kts 124°
2026-05-08 13:25 55.27283 -2.40966 19919 ft 367 kts 124°
2026-05-08 13:25 55.26022 -2.37080 19436 ft 366 kts 124°
2026-05-08 13:25 55.24767 -2.33211 18951 ft 364 kts 124°
2026-05-08 13:26 55.23518 -2.29366 18477 ft 363 kts 124°
2026-05-08 13:26 55.22269 -2.25539 18003 ft 361 kts 124°
2026-05-08 13:26 55.21025 -2.21742 17531 ft 359 kts 123°
2026-05-08 13:26 55.19784 -2.17966 17065 ft 357 kts 123°
2026-05-08 13:27 55.18555 -2.14224 16741 ft 351 kts 123°
2026-05-08 13:27 55.17347 -2.10550 16377 ft 347 kts 123°
2026-05-08 13:27 55.16148 -2.06909 15971 ft 344 kts 123°
2026-05-08 13:27 55.14954 -2.03302 15554 ft 342 kts 123°
2026-05-08 13:28 55.13766 -1.99716 15147 ft 340 kts 123°
2026-05-08 13:28 55.12602 -1.96193 14741 ft 337 kts 123°
2026-05-08 13:28 55.11416 -1.92599 14330 ft 335 kts 123°
2026-05-08 13:28 55.10268 -1.89131 13934 ft 334 kts 123°
2026-05-08 13:29 55.09108 -1.85638 13531 ft 331 kts 123°
2026-05-08 13:29 55.07953 -1.82163 13121 ft 329 kts 123°
2026-05-08 13:29 55.06808 -1.78722 12720 ft 327 kts 123°
2026-05-08 13:29 55.05501 -1.75535 12310 ft 320 kts 139°
2026-05-08 13:30 55.03672 -1.73462 11906 ft 312 kts 161°
2026-05-08 13:30 55.01577 -1.72797 11488 ft 305 kts 183°
2026-05-08 13:30 54.99540 -1.73560 11190 ft 295 kts 204°
2026-05-08 13:30 54.97732 -1.75094 11070 ft 284 kts 207°
2026-05-08 13:31 54.95982 -1.76596 10835 ft 278 kts 207°
2026-05-08 13:31 54.94253 -1.78074 10501 ft 275 kts 206°
2026-05-08 13:31 54.92656 -1.79852 10140 ft 273 kts 225°
2026-05-08 13:31 54.91563 -1.82544 9764 ft 273 kts 239°
2026-05-08 13:32 54.90633 -1.85423 9389 ft 273 kts 240°
2026-05-08 13:32 54.89719 -1.88309 9010 ft 272 kts 240°
2026-05-08 13:32 54.88807 -1.91195 8633 ft 271 kts 240°
2026-05-08 13:32 54.87904 -1.94056 8256 ft 269 kts 240°
2026-05-08 13:33 54.87009 -1.96900 7877 ft 268 kts 240°
2026-05-08 13:33 54.86142 -1.99761 7498 ft 267 kts 246°
2026-05-08 13:33 54.85711 -2.02892 7102 ft 268 kts 261°
2026-05-08 13:33 54.85799 -2.06109 6715 ft 269 kts 278°
2026-05-08 13:34 54.86044 -2.08214 6456 ft 269 kts 281°
2026-05-08 13:34 54.87156 -2.12055 5813 ft 269 kts 311°
2026-05-08 13:34 54.88122 -2.13417 5421 ft 275 kts 329°
2026-05-08 13:34 54.89937 -2.14344 5058 ft 274 kts
2026-05-08 13:35 54.91703 -2.13337 4770 ft 266 kts 39°
2026-05-08 13:35 54.92752 -2.10853 4633 ft 249 kts 71°
2026-05-08 13:35 54.93354 -2.08090 4509 ft 240 kts 70°
2026-05-08 13:35 54.94012 -2.05488 4413 ft 231 kts 67°
2026-05-08 13:36 54.94684 -2.02996 4240 ft 226 kts 67°
2026-05-08 13:36 54.95354 -2.00514 3956 ft 229 kts 67°
2026-05-08 13:36 54.96034 -1.97990 3655 ft 231 kts 67°
2026-05-08 13:36 54.96714 -1.95464 3356 ft 228 kts 67°
2026-05-08 13:37 54.97403 -1.93012 3061 ft 223 kts 66°
2026-05-08 13:37 54.98047 -1.90575 2755 ft 218 kts 68°
2026-05-08 13:37 54.98668 -1.88202 2466 ft 213 kts 68°
2026-05-08 13:37 54.99279 -1.85911 2187 ft 202 kts 67°
2026-05-08 13:38 54.99846 -1.83792 1954 ft 184 kts 67°
2026-05-08 13:38 55.00360 -1.81868 1709 ft 167 kts 67°
2026-05-08 13:38 55.00832 -1.80102 1486 ft 157 kts 67°
2026-05-08 13:38 55.01275 -1.78430 1298 ft 146 kts 67°
2026-05-08 13:39 55.01683 -1.76865 1181 ft 140 kts 68°
2026-05-08 13:39 55.02081 -1.75336 1008 ft 137 kts 67°
2026-05-08 13:39 55.02495 -1.73818 734 ft 136 kts 66°
2026-05-08 13:39 55.02908 -1.72341 555 ft 135 kts 68°
2026-05-08 13:40 55.03286 -1.70865 377 ft 135 kts 66°
2026-05-08 13:40 55.03673 -1.69416 270 ft 123 kts 65°
2026-05-08 13:40 55.03928 -1.68461 259 ft 59 kts 65°
2026-05-08 13:40 55.04070 -1.67924 252 ft 37 kts 65°
2026-05-08 13:41 55.04160 -1.67578 250 ft 24 kts 65°
2026-05-08 13:41 55.04226 -1.67367 249 ft 0 kts 17°
2026-05-08 13:41 55.04278 -1.67368 249 ft 24 kts 353°
2026-05-08 13:41 55.04330 -1.67438 248 ft 3 kts 265°
2026-05-08 13:42 55.04330 -1.67486 249 ft 0 kts 274°
2026-05-08 13:44 55.04330 -1.67499 249 ft 5 kts 274°
2026-05-08 13:44 55.04331 -1.67634 250 ft 14 kts 258°
2026-05-08 13:44 55.04295 -1.67777 251 ft 12 kts 245°
2026-05-08 13:44 55.04263 -1.67896 253 ft 11 kts 245°
2026-05-08 13:45 55.04210 -1.68098 255 ft 23 kts 245°
2026-05-08 13:45 55.04141 -1.68359 258 ft 24 kts 245°
2026-05-08 13:45 55.04069 -1.68630 260 ft 25 kts 245°
2026-05-08 13:45 55.03994 -1.68911 263 ft 26 kts 245°
2026-05-08 13:46 55.03916 -1.69203 266 ft 27 kts 245°
2026-05-08 13:46 55.03838 -1.69501 269 ft 27 kts 246°
2026-05-08 13:46 55.03788 -1.69803 271 ft 25 kts 258°
2026-05-08 13:46 55.03775 -1.70120 269 ft 28 kts 274°
2026-05-08 13:47 55.03780 -1.70378 268 ft 13 kts 256°
2026-05-08 13:47 55.03720 -1.70431 271 ft 8 kts 184°
2026-05-08 13:47 55.03677 -1.70437 272 ft 5 kts 185°
2026-05-08 13:47 55.03617 -1.70458 274 ft 13 kts 210°
2026-05-08 13:48 55.03592 -1.70656 275 ft 17 kts 272°
2026-05-08 13:48 55.03598 -1.70800 275 ft 8 kts 275°
2026-05-08 13:48 55.03612 -1.70885 275 ft 7 kts 280°
2026-05-08 13:48 55.03613 -1.70919 275 ft 1 kts 275°
2026-05-08 13:49 55.03614 -1.70937 275 ft 0 kts 274°